Language: 


Des rapports , des résumés tant et plus, au choix de chacun....


Données statistiques de la station
Quotidien Rapport Juillet 8, 2017 Unités:  Métrique    Anglais   les deux
« Précédent Jour
Suivant Jour »
Quotidien Hebdomadaire Mensuel Annuel Actuel
  Haut: Bas: Moyen:
Température: 26.4 °C 0.0 °C 20.7 °C
Pt de rosée: 19.0 °C 10.0 °C 15.4 °C
Humidité: 94 % 0 % 72 %
Vitesse du vent: 20.1 km/h 0.0 km/h 5.3 km/h
Rafales: 20.1 km/h - -
Vent:- - WSW
Pression: 1018.2 hPa 0.0 hPa -
Précipitation: 0.0 mm    
Historical Graphs
 
 
Données statistiques pour Juillet 8, 2017
Heure Température Point de rosée Pression Vent Vitesse du vent Refales Humidité Pluie (taux horaire)
00:00 16.8 °C 10.0 °C 1016.8 hPa Calm   4.3 km/h 65 % 0.0 mm
00:05 16.7 °C 10.0 °C 1016.8 hPa Calm   4.3 km/h 65 % 0.0 mm
00:10 16.4 °C 10.0 °C 1016.8 hPa Calm   2.1 km/h 66 % 0.0 mm
00:15 16.2 °C 10.0 °C 1016.8 hPa Calm   2.1 km/h 67 % 0.0 mm
00:20 16.0 °C 10.0 °C 1016.8 hPa Calm     67 % 0.0 mm
00:25 15.8 °C 10.0 °C 1016.8 hPa Calm   6.4 km/h 69 % 0.0 mm
00:30 15.8 °C 10.0 °C 1016.8 hPa Calm   6.4 km/h 69 % 0.0 mm
00:35 15.6 °C 10.0 °C 1016.8 hPa Calm     69 % 0.0 mm
00:40 15.6 °C 10.0 °C 1016.8 hPa Calm     70 % 0.0 mm
00:46 15.5 °C 10.0 °C 1016.8 hPa Calm     70 % 0.0 mm
00:51 15.5 °C 10.0 °C 1016.8 hPa Calm     70 % 0.0 mm
00:56 15.4 °C 10.0 °C 1016.8 hPa Calm     71 % 0.0 mm
00:57 15.4 °C 10.0 °C 1016.8 hPa Calm     70 % 0.0 mm
01:02 15.5 °C 11.0 °C 1016.8 hPa SSW 4.7 km/h 5.5 km/h 71 % 0.0 mm
01:07 15.5 °C 11.0 °C 1016.8 hPa West 4.0 km/h 5.5 km/h 71 % 0.0 mm
01:12 15.6 °C 11.0 °C 1016.8 hPa Calm   5.0 km/h 72 % 0.0 mm
01:18 15.6 °C 11.0 °C 1016.8 hPa Calm     71 % 0.0 mm
01:22 15.5 °C 11.0 °C 1016.8 hPa Calm     72 % 0.0 mm
01:28 15.5 °C 11.0 °C 1016.8 hPa Calm     72 % 0.0 mm
01:33 15.6 °C 11.0 °C 1016.8 hPa Calm     72 % 0.0 mm
01:38 15.6 °C 11.0 °C 1016.8 hPa WSW 7.9 km/h 7.9 km/h 73 % 0.0 mm
01:43 15.9 °C 12.0 °C 1016.8 hPa WSW 5.5 km/h 7.9 km/h 74 % 0.0 mm
01:48 16.0 °C 11.0 °C 1016.8 hPa WSW 6.1 km/h 7.6 km/h 73 % 0.0 mm
01:53 16.1 °C 12.0 °C 1016.8 hPa Calm   9.0 km/h 74 % 0.0 mm
01:55 16.1 °C 12.0 °C 1016.8 hPa WSW 5.5 km/h 9.0 km/h 74 % 0.0 mm
02:00 16.2 °C 12.0 °C 1016.8 hPa Calm   6.9 km/h 75 % 0.0 mm
02:05 16.3 °C 12.0 °C 1016.8 hPa Calm   7.2 km/h 75 % 0.0 mm
02:10 16.4 °C 12.0 °C 1016.8 hPa Calm   7.2 km/h 76 % 0.0 mm
02:16 16.4 °C 12.0 °C 1016.8 hPa WSW 6.9 km/h 10.5 km/h 76 % 0.0 mm
02:21 16.6 °C 13.0 °C 1016.8 hPa Calm   10.5 km/h 77 % 0.0 mm
02:26 16.6 °C 13.0 °C 1016.8 hPa Calm   10.1 km/h 78 % 0.0 mm
02:31 16.6 °C 13.0 °C 1016.8 hPa Calm   6.1 km/h 78 % 0.0 mm
02:36 16.6 °C 13.0 °C 1016.8 hPa WSW 9.7 km/h 9.7 km/h 79 % 0.0 mm
02:41 16.6 °C 13.0 °C 1016.8 hPa WSW 5.8 km/h 10.5 km/h 80 % 0.0 mm
02:46 16.6 °C 13.0 °C 1016.8 hPa WSW 6.1 km/h 10.5 km/h 80 % 0.0 mm
02:51 16.5 °C 13.0 °C 1016.8 hPa West 3.2 km/h 8.7 km/h 80 % 0.0 mm
02:56 16.5 °C 13.0 °C 1016.8 hPa Calm   9.0 km/h 80 % 0.0 mm
03:01 16.4 °C 13.0 °C 1016.8 hPa Calm   9.0 km/h 81 % 0.0 mm
03:06 16.2 °C 13.0 °C 1016.8 hPa Calm     81 % 0.0 mm
03:11 16.0 °C 13.0 °C 1016.8 hPa Calm     81 % 0.0 mm
03:16 15.9 °C 13.0 °C 1016.1 hPa Calm     82 % 0.0 mm
03:21 15.9 °C 13.0 °C 1016.1 hPa Calm   6.9 km/h 83 % 0.0 mm
03:26 15.8 °C 13.0 °C 1016.1 hPa Calm   6.9 km/h 83 % 0.0 mm
03:31 15.8 °C 13.0 °C 1016.1 hPa Calm   7.2 km/h 84 % 0.0 mm
03:36 15.8 °C 13.0 °C 1016.1 hPa WSW 3.2 km/h 7.6 km/h 85 % 0.0 mm
03:41 15.9 °C 14.0 °C 1016.1 hPa WSW 4.3 km/h 7.6 km/h 86 % 0.0 mm
03:46 15.9 °C 14.0 °C 1016.1 hPa Calm   6.9 km/h 87 % 0.0 mm
03:51 15.9 °C 14.0 °C 1016.1 hPa Calm   6.4 km/h 87 % 0.0 mm
03:56 15.8 °C 14.0 °C 1016.1 hPa Calm     87 % 0.0 mm
04:01 15.8 °C 14.0 °C 1016.1 hPa Calm   4.7 km/h 88 % 0.0 mm
04:07 15.7 °C 14.0 °C 1016.1 hPa Calm   6.4 km/h 88 % 0.0 mm
04:12 15.8 °C 14.0 °C 1016.1 hPa WSW 4.3 km/h 7.6 km/h 89 % 0.0 mm
04:17 15.8 °C 14.0 °C 1016.1 hPa Calm   7.9 km/h 89 % 0.0 mm
04:22 15.9 °C 14.0 °C 1016.1 hPa Calm   7.9 km/h 90 % 0.0 mm
04:27 15.9 °C 15.0 °C 1016.1 hPa Calm   5.8 km/h 91 % 0.0 mm
04:32 16.0 °C 14.0 °C 1016.8 hPa Calm   6.1 km/h 90 % 0.0 mm
04:37 16.1 °C 15.0 °C 1016.8 hPa WSW 4.3 km/h 6.1 km/h 91 % 0.0 mm
04:42 16.2 °C 15.0 °C 1016.8 hPa Calm   6.9 km/h 91 % 0.0 mm
04:47 16.2 °C 15.0 °C 1016.1 hPa Calm   6.9 km/h 91 % 0.0 mm
04:52 16.3 °C 15.0 °C 1016.1 hPa Calm   6.4 km/h 91 % 0.0 mm
04:57 16.3 °C 15.0 °C 1016.1 hPa Calm   6.4 km/h 91 % 0.0 mm
05:02 16.3 °C 15.0 °C 1016.1 hPa Calm   4.3 km/h 91 % 0.0 mm
05:07 16.3 °C 15.0 °C 1016.1 hPa WSW 2.1 km/h 5.8 km/h 92 % 0.0 mm
05:12 16.3 °C 15.0 °C 1016.1 hPa Calm   5.8 km/h 91 % 0.0 mm
05:17 16.2 °C 15.0 °C 1016.1 hPa Calm   4.0 km/h 91 % 0.0 mm
05:22 16.1 °C 15.0 °C 1016.1 hPa Calm   4.0 km/h 91 % 0.0 mm
05:27 16.0 °C 15.0 °C 1016.1 hPa Calm   3.5 km/h 91 % 0.0 mm
05:32 15.9 °C 15.0 °C 1016.1 hPa Calm     92 % 0.0 mm
05:37 15.8 °C 14.0 °C 1016.1 hPa Calm     92 % 0.0 mm
05:42 15.7 °C 14.0 °C 1016.1 hPa Calm   5.0 km/h 92 % 0.0 mm
05:47 15.7 °C 14.0 °C 1016.1 hPa Calm   5.0 km/h 92 % 0.0 mm
05:52 15.5 °C 14.0 °C 1016.1 hPa Calm   4.0 km/h 92 % 0.0 mm
05:57 15.4 °C 14.0 °C 1016.1 hPa Calm   4.0 km/h 92 % 0.0 mm
06:02 15.4 °C 14.0 °C 1015.1 hPa Calm     92 % 0.0 mm
06:07 15.4 °C 14.0 °C 1015.1 hPa Calm     93 % 0.0 mm
06:12 15.5 °C 15.0 °C 1015.1 hPa Calm   3.5 km/h 93 % 0.0 mm
06:17 15.5 °C 15.0 °C 1016.1 hPa Calm   5.5 km/h 93 % 0.0 mm
06:22 15.6 °C 15.0 °C 1016.1 hPa Calm   5.5 km/h 93 % 0.0 mm
06:28 15.7 °C 15.0 °C 1016.1 hPa Calm     94 % 0.0 mm
06:33 15.8 °C 15.0 °C 1016.1 hPa Calm     94 % 0.0 mm
06:38 15.9 °C 15.0 °C 1016.1 hPa WSW 2.6 km/h 5.5 km/h 94 % 0.0 mm
06:43 16.1 °C 15.0 °C 1016.1 hPa WSW 1.4 km/h 6.9 km/h 94 % 0.0 mm
06:48 16.3 °C 15.0 °C 1016.1 hPa Calm   6.9 km/h 94 % 0.0 mm
06:53 16.5 °C 16.0 °C 1016.1 hPa Calm   4.3 km/h 94 % 0.0 mm
06:58 16.6 °C 16.0 °C 1016.1 hPa WSW 9.0 km/h 9.0 km/h 94 % 0.0 mm
07:25 17.5 °C 17.0 °C 1015.1 hPa SW 4.7 km/h 9.0 km/h 94 % 0.0 mm
07:30 18.0 °C 17.0 °C 1016.1 hPa WSW 5.8 km/h 9.7 km/h 93 % 0.0 mm
07:35 18.3 °C 17.0 °C 1016.1 hPa West 6.4 km/h 10.5 km/h 93 % 0.0 mm
07:41 0.0 °C 18.0 °C 0.0 hPa Calm     0 % 0.0 mm
07:46 18.9 °C 18.0 °C 1016.1 hPa SW 5.5 km/h 11.6 km/h 92 % 0.0 mm
07:51 18.9 °C 18.0 °C 1016.1 hPa WSW 9.0 km/h 12.2 km/h 91 % 0.0 mm
07:56 19.2 °C 18.0 °C 1016.1 hPa WSW 9.3 km/h 12.2 km/h 90 % 0.0 mm
08:01 19.5 °C 18.0 °C 1016.1 hPa West 12.2 km/h 12.6 km/h 89 % 0.0 mm
08:06 19.5 °C 18.0 °C 1016.1 hPa WNW 5.0 km/h 14.0 km/h 89 % 0.0 mm
08:11 19.8 °C 18.0 °C 1016.1 hPa West 6.9 km/h 14.0 km/h 88 % 0.0 mm
08:16 20.0 °C 18.0 °C 1016.1 hPa West 7.9 km/h 17.2 km/h 87 % 0.0 mm
08:22 20.1 °C 18.0 °C 1016.1 hPa SW 9.3 km/h 17.2 km/h 86 % 0.0 mm
08:27 20.5 °C 18.0 °C 1016.1 hPa West 8.7 km/h 16.3 km/h 86 % 0.0 mm
08:32 20.8 °C 18.0 °C 1016.8 hPa West 11.6 km/h 12.6 km/h 85 % 0.0 mm
08:37 20.6 °C 18.0 °C 1016.8 hPa WNW 2.1 km/h 16.9 km/h 84 % 0.0 mm
08:42 20.4 °C 18.0 °C 1016.8 hPa West 4.0 km/h 16.9 km/h 84 % 0.0 mm
08:47 20.5 °C 18.0 °C 1016.8 hPa West 8.7 km/h 13.7 km/h 84 % 0.0 mm
08:52 20.7 °C 18.0 °C 1016.8 hPa WNW 4.7 km/h 11.6 km/h 84 % 0.0 mm
08:57 20.7 °C 18.0 °C 1016.8 hPa WNW 8.7 km/h 11.9 km/h 84 % 0.0 mm
09:02 21.2 °C 19.0 °C 1016.8 hPa WNW 9.7 km/h 12.6 km/h 84 % 0.0 mm
09:07 21.2 °C 19.0 °C 1016.8 hPa NW 4.7 km/h 12.6 km/h 84 % 0.0 mm
09:12 21.6 °C 19.0 °C 1016.8 hPa West 9.7 km/h 14.0 km/h 82 % 0.0 mm
09:17 21.6 °C 19.0 °C 1016.8 hPa WNW 6.4 km/h 16.3 km/h 82 % 0.0 mm
09:22 21.6 °C 19.0 °C 1016.8 hPa NW 10.1 km/h 16.6 km/h 82 % 0.0 mm
09:27 21.6 °C 19.0 °C 1016.8 hPa NNW 9.7 km/h 16.6 km/h 82 % 0.0 mm
09:32 21.6 °C 19.0 °C 1016.8 hPa West 5.0 km/h 14.8 km/h 82 % 0.0 mm
09:37 21.6 °C 19.0 °C 1016.8 hPa WNW 11.9 km/h 14.8 km/h 82 % 0.0 mm
09:42 21.6 °C 19.0 °C 1016.8 hPa NE 5.8 km/h 12.6 km/h 82 % 0.0 mm
09:47 21.6 °C 19.0 °C 1016.8 hPa NW 4.0 km/h 12.2 km/h 82 % 0.0 mm
09:52 21.6 °C 19.0 °C 1016.8 hPa WNW 5.0 km/h 12.2 km/h 82 % 0.0 mm
09:57 21.6 °C 19.0 °C 1016.8 hPa WNW 9.0 km/h 10.5 km/h 82 % 0.0 mm
10:02 21.6 °C 19.0 °C 1016.8 hPa WSW 12.6 km/h 15.8 km/h 82 % 0.0 mm
10:04 21.6 °C 19.0 °C 1016.8 hPa WSW 12.6 km/h 15.8 km/h 82 % 0.0 mm
10:09 21.6 °C 19.0 °C 1016.8 hPa West 14.0 km/h 15.8 km/h 82 % 0.0 mm
10:14 21.6 °C 19.0 °C 1016.8 hPa WNW 1.4 km/h 14.3 km/h 82 % 0.0 mm
10:19 21.6 °C 19.0 °C 1016.8 hPa West 9.7 km/h 11.6 km/h 82 % 0.0 mm
10:24 21.6 °C 19.0 °C 1016.8 hPa West 6.1 km/h 13.7 km/h 82 % 0.0 mm
10:29 21.6 °C 19.0 °C 1016.8 hPa West 4.7 km/h 13.7 km/h 82 % 0.0 mm
10:34 21.6 °C 19.0 °C 1016.8 hPa WSW 9.3 km/h 13.0 km/h 82 % 0.0 mm
10:39 21.6 °C 19.0 °C 1016.8 hPa WNW 4.3 km/h 13.7 km/h 82 % 0.0 mm
10:44 21.6 °C 19.0 °C 1016.8 hPa West 4.7 km/h 13.7 km/h 82 % 0.0 mm
10:49 21.6 °C 19.0 °C 1016.8 hPa West 9.7 km/h 13.7 km/h 82 % 0.0 mm
10:54 21.6 °C 19.0 °C 1016.8 hPa North 9.0 km/h 14.0 km/h 82 % 0.0 mm
10:59 21.6 °C 19.0 °C 1016.1 hPa WNW 8.7 km/h 16.6 km/h 82 % 0.0 mm
11:04 21.6 °C 19.0 °C 1016.1 hPa SSW 9.3 km/h 16.6 km/h 82 % 0.0 mm
11:09 21.6 °C 19.0 °C 1016.1 hPa North 5.5 km/h 14.8 km/h 82 % 0.0 mm
11:14 25.2 °C 18.0 °C 1016.8 hPa West 9.0 km/h 15.8 km/h 64 % 0.0 mm
11:19 25.2 °C 18.0 °C 1016.8 hPa West 12.6 km/h 15.8 km/h 64 % 0.0 mm
11:24 25.2 °C 18.0 °C 1016.8 hPa WSW 5.8 km/h 14.3 km/h 64 % 0.0 mm
11:29 25.2 °C 18.0 °C 1016.8 hPa West 6.1 km/h 13.7 km/h 64 % 0.0 mm
11:34 25.2 °C 18.0 °C 1016.8 hPa North 9.0 km/h 13.7 km/h 64 % 0.0 mm
11:39 25.2 °C 18.0 °C 1016.8 hPa NW 10.5 km/h 16.3 km/h 64 % 0.0 mm
11:44 25.2 °C 18.0 °C 1016.8 hPa ESE 5.5 km/h 16.3 km/h 64 % 0.0 mm
11:49 25.2 °C 18.0 °C 1016.8 hPa NNW 7.9 km/h 15.4 km/h 64 % 0.0 mm
11:55 25.2 °C 18.0 °C 1016.8 hPa WNW 9.0 km/h 15.4 km/h 64 % 0.0 mm
12:00 25.2 °C 18.0 °C 1016.8 hPa NNW 11.6 km/h 19.8 km/h 64 % 0.0 mm
12:05 25.2 °C 18.0 °C 1016.8 hPa NNW 9.3 km/h 19.8 km/h 64 % 0.0 mm
12:10 25.2 °C 18.0 °C 1016.8 hPa NNW 4.3 km/h 14.0 km/h 64 % 0.0 mm
12:12 25.2 °C 18.0 °C 1016.8 hPa NNW 2.1 km/h 14.0 km/h 64 % 0.0 mm
12:17 25.2 °C 18.0 °C 1018.2 hPa WNW 20.1 km/h 20.1 km/h 64 % 0.0 mm
12:22 25.2 °C 18.0 °C 1018.2 hPa NNW 4.3 km/h 20.1 km/h 64 % 0.0 mm
12:27 25.2 °C 18.0 °C 1018.2 hPa WNW 3.2 km/h 16.3 km/h 64 % 0.0 mm
12:32 25.2 °C 18.0 °C 1018.2 hPa NW 7.9 km/h 15.8 km/h 64 % 0.0 mm
12:37 25.2 °C 18.0 °C 1018.2 hPa NW 6.9 km/h 13.7 km/h 64 % 0.0 mm
12:42 25.2 °C 18.0 °C 1018.2 hPa North 4.7 km/h 13.7 km/h 64 % 0.0 mm
12:47 25.2 °C 18.0 °C 1018.2 hPa North 8.7 km/h 15.8 km/h 64 % 0.0 mm
12:52 24.7 °C 18.0 °C 1018.2 hPa NNW 10.5 km/h 15.8 km/h 64 % 0.0 mm
12:57 24.3 °C 17.0 °C 1018.2 hPa West 4.3 km/h 16.3 km/h 63 % 0.0 mm
13:02 24.4 °C 18.0 °C 1018.2 hPa NNW 9.7 km/h 16.3 km/h 65 % 0.0 mm
13:07 24.5 °C 18.0 °C 1018.2 hPa WNW 6.1 km/h 13.0 km/h 64 % 0.0 mm
13:12 24.4 °C 17.0 °C 1018.2 hPa North 9.0 km/h 13.0 km/h 64 % 0.0 mm
13:17 24.4 °C 17.0 °C 1018.2 hPa SW 3.2 km/h 13.0 km/h 64 % 0.0 mm
13:22 24.4 °C 17.0 °C 1018.2 hPa NW 8.7 km/h 12.2 km/h 64 % 0.0 mm
13:27 24.7 °C 17.0 °C 1018.2 hPa North 11.9 km/h 12.2 km/h 63 % 0.0 mm
13:28 24.7 °C 17.0 °C 1018.2 hPa North 4.7 km/h 12.2 km/h 63 % 0.0 mm
13:33 24.6 °C 17.0 °C 1018.2 hPa NNW 12.6 km/h 13.7 km/h 63 % 0.0 mm
13:38 24.6 °C 17.0 °C 1018.2 hPa NE 6.9 km/h 13.7 km/h 63 % 0.0 mm
13:43 24.6 °C 17.0 °C 1018.2 hPa NNW 10.5 km/h 13.0 km/h 63 % 0.0 mm
13:48 25.1 °C 17.0 °C 1018.2 hPa North 6.1 km/h 17.2 km/h 62 % 0.0 mm
13:53 25.1 °C 17.0 °C 1018.2 hPa NNW 10.1 km/h 17.2 km/h 62 % 0.0 mm
13:58 24.9 °C 17.0 °C 1018.2 hPa Calm   17.2 km/h 62 % 0.0 mm
14:03 25.4 °C 17.0 °C 1018.2 hPa WNW 13.0 km/h 16.9 km/h 61 % 0.0 mm
14:08 25.4 °C 17.0 °C 1018.2 hPa WNW 9.3 km/h 16.9 km/h 61 % 0.0 mm
14:13 25.7 °C 18.0 °C 1018.2 hPa NE 11.9 km/h 13.7 km/h 61 % 0.0 mm
14:18 25.4 °C 17.0 °C 1018.2 hPa WNW 15.4 km/h 16.6 km/h 60 % 0.0 mm
14:23 25.3 °C 17.0 °C 1018.2 hPa WNW 7.9 km/h 16.6 km/h 61 % 0.0 mm
14:28 25.0 °C 17.0 °C 1018.2 hPa WNW 13.0 km/h 16.3 km/h 60 % 0.0 mm
14:33 24.7 °C 17.0 °C 1018.2 hPa NNW 8.7 km/h 17.2 km/h 61 % 0.0 mm
14:38 24.6 °C 17.0 °C 1018.2 hPa North 13.7 km/h 17.2 km/h 63 % 0.0 mm
14:43 24.8 °C 17.0 °C 1018.2 hPa NNE 6.9 km/h 15.8 km/h 63 % 0.0 mm
14:48 24.4 °C 17.0 °C 1018.2 hPa North 8.7 km/h 15.8 km/h 63 % 0.0 mm
14:53 24.2 °C 17.0 °C 1018.2 hPa NE 9.0 km/h 15.8 km/h 63 % 0.0 mm
14:58 24.3 °C 17.0 °C 1018.2 hPa North 9.3 km/h 13.7 km/h 63 % 0.0 mm
15:03 24.2 °C 17.0 °C 1018.2 hPa NW 7.9 km/h 14.0 km/h 63 % 0.0 mm
15:08 24.0 °C 17.0 °C 1018.2 hPa WNW 7.6 km/h 14.8 km/h 63 % 0.0 mm
15:13 24.2 °C 17.0 °C 1018.2 hPa NW 9.0 km/h 14.8 km/h 63 % 0.0 mm
15:18 24.3 °C 17.0 °C 1018.2 hPa North 6.4 km/h 13.7 km/h 63 % 0.0 mm
15:23 24.7 °C 17.0 °C 1018.2 hPa NNW 9.3 km/h 18.3 km/h 62 % 0.0 mm
15:29 24.7 °C 17.0 °C 1018.2 hPa North 9.0 km/h 18.3 km/h 62 % 0.0 mm
15:34 24.8 °C 17.0 °C 1018.2 hPa North 10.1 km/h 16.9 km/h 60 % 0.0 mm
15:39 24.8 °C 17.0 °C 1018.2 hPa NNW 9.7 km/h 17.2 km/h 60 % 0.0 mm
15:44 25.8 °C 17.0 °C 1016.8 hPa NW 6.9 km/h 17.2 km/h 59 % 0.0 mm
15:49 25.8 °C 17.0 °C 1016.8 hPa NE 10.1 km/h 16.3 km/h 59 % 0.0 mm
15:54 25.9 °C 17.0 °C 1016.8 hPa North 7.9 km/h 20.1 km/h 57 % 0.0 mm
15:59 26.1 °C 17.0 °C 1018.2 hPa NNE 12.6 km/h 20.1 km/h 56 % 0.0 mm
16:04 26.0 °C 16.0 °C 1018.2 hPa North 9.3 km/h 17.2 km/h 55 % 0.0 mm
16:09 25.8 °C 16.0 °C 1018.2 hPa NW 7.9 km/h 17.2 km/h 55 % 0.0 mm
16:14 25.5 °C 16.0 °C 1018.2 hPa North 9.3 km/h 16.6 km/h 56 % 0.0 mm
16:19 25.1 °C 15.0 °C 1018.2 hPa North 4.7 km/h 16.3 km/h 55 % 0.0 mm
16:24 25.1 °C 15.0 °C 1018.2 hPa NNE 5.8 km/h 16.3 km/h 55 % 0.0 mm
16:29 26.2 °C 17.0 °C 1016.8 hPa NNE 6.1 km/h 15.8 km/h 54 % 0.0 mm
16:34 25.6 °C 16.0 °C 1016.8 hPa NNE 9.7 km/h 16.6 km/h 54 % 0.0 mm
16:39 25.3 °C 16.0 °C 1016.8 hPa North 10.5 km/h 16.6 km/h 55 % 0.0 mm
16:44 25.4 °C 16.0 °C 1016.8 hPa North 8.7 km/h 15.4 km/h 55 % 0.0 mm
16:49 25.4 °C 16.0 °C 1016.8 hPa NW 10.5 km/h 17.7 km/h 54 % 0.0 mm
16:54 25.7 °C 16.0 °C 1016.8 hPa NNE 6.4 km/h 17.7 km/h 54 % 0.0 mm
16:59 25.7 °C 16.0 °C 1016.8 hPa North 7.9 km/h 15.8 km/h 54 % 0.0 mm
17:04 26.1 °C 16.0 °C 1016.8 hPa NNE 12.2 km/h 15.8 km/h 54 % 0.0 mm
17:09 26.0 °C 16.0 °C 1016.8 hPa NE 10.5 km/h 16.3 km/h 54 % 0.0 mm
17:14 26.0 °C 16.0 °C 1016.8 hPa North 15.4 km/h 16.3 km/h 53 % 0.0 mm
17:19 25.7 °C 16.0 °C 1016.8 hPa North 10.8 km/h 15.4 km/h 53 % 0.0 mm
17:24 25.4 °C 16.0 °C 1016.8 hPa NNW 14.0 km/h 16.3 km/h 54 % 0.0 mm
17:29 26.0 °C 16.0 °C 1016.8 hPa NE 7.9 km/h 16.3 km/h 54 % 0.0 mm
17:35 26.1 °C 16.0 °C 1016.8 hPa NNW 13.0 km/h 13.0 km/h 53 % 0.0 mm
17:36 26.0 °C 16.0 °C 1016.8 hPa West 10.1 km/h 13.0 km/h 53 % 0.0 mm
17:41 26.3 °C 16.0 °C 1016.8 hPa North 6.1 km/h 13.0 km/h 52 % 0.0 mm
17:46 26.4 °C 16.0 °C 1016.8 hPa Calm   14.0 km/h 52 % 0.0 mm
17:51 26.2 °C 15.0 °C 1016.8 hPa NNE 13.7 km/h 16.3 km/h 50 % 0.0 mm
17:56 26.0 °C 15.0 °C 1016.8 hPa North 11.6 km/h 16.3 km/h 51 % 0.0 mm
18:01 26.2 °C 16.0 °C 1016.8 hPa North 6.4 km/h 12.6 km/h 51 % 0.0 mm
18:06 26.2 °C 16.0 °C 1016.8 hPa North 6.9 km/h 12.6 km/h 52 % 0.0 mm
18:11 26.0 °C 16.0 °C 1016.8 hPa NNE 6.9 km/h 12.2 km/h 52 % 0.0 mm
18:16 26.0 °C 15.0 °C 1016.8 hPa North 7.9 km/h 12.2 km/h 51 % 0.0 mm
18:31 25.8 °C 15.0 °C 1016.8 hPa North 9.0 km/h 10.8 km/h 52 % 0.0 mm
18:36 25.3 °C 15.0 °C 1016.8 hPa NE 9.7 km/h 15.1 km/h 52 % 0.0 mm
18:41 25.2 °C 15.0 °C 1016.8 hPa NE 11.9 km/h 15.1 km/h 53 % 0.0 mm
18:46 25.2 °C 16.0 °C 1016.8 hPa NNW 5.5 km/h 12.6 km/h 55 % 0.0 mm
18:51 25.2 °C 15.0 °C 1016.8 hPa North 5.8 km/h 12.6 km/h 53 % 0.0 mm
18:56 25.2 °C 15.0 °C 1016.8 hPa NW 7.6 km/h 12.6 km/h 53 % 0.0 mm
19:01 25.1 °C 15.0 °C 1016.8 hPa NNE 9.3 km/h 12.6 km/h 53 % 0.0 mm
19:07 24.9 °C 15.0 °C 1016.8 hPa North 6.9 km/h 13.0 km/h 53 % 0.0 mm
19:12 24.8 °C 15.0 °C 1016.8 hPa North 12.6 km/h 14.3 km/h 53 % 0.0 mm
19:17 24.7 °C 15.0 °C 1016.1 hPa NNE 11.6 km/h 14.3 km/h 53 % 0.0 mm
19:22 24.5 °C 15.0 °C 1016.1 hPa North 8.7 km/h 14.3 km/h 53 % 0.0 mm
19:27 24.3 °C 15.0 °C 1016.1 hPa NE 9.3 km/h 14.0 km/h 54 % 0.0 mm
19:32 24.2 °C 15.0 °C 1016.8 hPa West 10.5 km/h 14.0 km/h 55 % 0.0 mm
19:37 24.3 °C 15.0 °C 1016.8 hPa NNE 7.9 km/h 14.0 km/h 56 % 0.0 mm
19:42 23.9 °C 15.0 °C 1016.8 hPa NE 9.7 km/h 14.8 km/h 56 % 0.0 mm
19:47 23.9 °C 15.0 °C 1016.1 hPa NE 11.6 km/h 16.3 km/h 56 % 0.0 mm
19:52 23.9 °C 15.0 °C 1016.1 hPa NE 13.7 km/h 16.3 km/h 56 % 0.0 mm
19:57 23.9 °C 15.0 °C 1016.1 hPa NE 12.2 km/h 16.9 km/h 56 % 0.0 mm
20:02 23.9 °C 15.0 °C 1016.8 hPa North 6.9 km/h 16.9 km/h 56 % 0.0 mm
20:07 23.9 °C 15.0 °C 1016.8 hPa ENE 5.0 km/h 14.3 km/h 56 % 0.0 mm
20:12 23.9 °C 15.0 °C 1016.8 hPa NE 10.1 km/h 14.0 km/h 56 % 0.0 mm
20:17 23.2 °C 15.0 °C 1016.1 hPa NW 8.7 km/h 12.6 km/h 58 % 0.0 mm
20:22 23.2 °C 15.0 °C 1016.1 hPa NE 6.4 km/h 13.7 km/h 58 % 0.0 mm
20:27 23.2 °C 15.0 °C 1016.1 hPa NNE 9.3 km/h 14.0 km/h 58 % 0.0 mm
20:31 23.2 °C 15.0 °C 1016.8 hPa ENE 5.8 km/h 14.0 km/h 58 % 0.0 mm
20:36 23.2 °C 15.0 °C 1016.8 hPa NE 5.5 km/h 13.7 km/h 58 % 0.0 mm
20:41 23.2 °C 15.0 °C 1016.8 hPa NE 10.1 km/h 13.7 km/h 58 % 0.0 mm
20:46 23.2 °C 15.0 °C 1016.8 hPa NE 6.4 km/h 13.0 km/h 58 % 0.0 mm
20:51 23.2 °C 15.0 °C 1016.8 hPa North 6.4 km/h 12.2 km/h 58 % 0.0 mm
20:56 23.2 °C 15.0 °C 1016.8 hPa ENE 12.2 km/h 12.6 km/h 58 % 0.0 mm
21:01 21.2 °C 14.0 °C 1016.8 hPa NE 8.7 km/h 12.6 km/h 64 % 0.0 mm
21:06 21.1 °C 14.0 °C 1016.8 hPa NNE 6.9 km/h 12.2 km/h 65 % 0.0 mm
21:11 20.9 °C 14.0 °C 1016.8 hPa NNE 7.2 km/h 12.2 km/h 65 % 0.0 mm
21:12 20.9 °C 14.0 °C 1016.8 hPa Calm   12.2 km/h 65 % 0.0 mm
21:17 20.7 °C 14.0 °C 1016.8 hPa NE 5.8 km/h 9.3 km/h 66 % 0.0 mm
21:22 20.6 °C 14.0 °C 1016.8 hPa NE 9.0 km/h 10.1 km/h 67 % 0.0 mm
21:27 20.4 °C 14.0 °C 1016.8 hPa Calm   10.1 km/h 67 % 0.0 mm
21:32 20.2 °C 14.0 °C 1016.8 hPa ENE 4.7 km/h 7.9 km/h 68 % 0.0 mm
21:37 20.0 °C 14.0 °C 1016.8 hPa Calm   6.9 km/h 68 % 0.0 mm
21:42 19.8 °C 14.0 °C 1016.8 hPa Calm   5.8 km/h 70 % 0.0 mm
21:47 19.7 °C 14.0 °C 1018.2 hPa NE 3.2 km/h 5.8 km/h 70 % 0.0 mm
21:52 19.4 °C 14.0 °C 1018.2 hPa Calm   5.8 km/h 70 % 0.0 mm
21:57 19.3 °C 14.0 °C 1018.2 hPa Calm   4.3 km/h 71 % 0.0 mm
22:02 19.1 °C 14.0 °C 1016.1 hPa Calm   4.3 km/h 72 % 0.0 mm
22:07 18.9 °C 14.0 °C 1016.1 hPa Calm   1.8 km/h 72 % 0.0 mm
22:12 18.7 °C 14.0 °C 1016.1 hPa Calm     73 % 0.0 mm
22:17 18.6 °C 14.0 °C 1016.8 hPa Calm     73 % 0.0 mm
22:22 18.3 °C 14.0 °C 1016.8 hPa Calm   2.6 km/h 74 % 0.0 mm
22:27 18.1 °C 14.0 °C 1016.8 hPa Calm   2.6 km/h 75 % 0.0 mm
22:32 18.0 °C 14.0 °C 1016.8 hPa Calm   2.6 km/h 76 % 0.0 mm
22:37 17.9 °C 14.0 °C 1016.8 hPa Calm   4.3 km/h 77 % 0.0 mm
22:42 17.8 °C 14.0 °C 1016.8 hPa NNW 4.7 km/h 5.8 km/h 78 % 0.0 mm
22:47 17.7 °C 14.0 °C 1016.8 hPa Calm   5.8 km/h 79 % 0.0 mm
22:53 17.5 °C 14.0 °C 1016.8 hPa Calm   5.0 km/h 79 % 0.0 mm
22:58 17.3 °C 14.0 °C 1016.8 hPa NNE 4.3 km/h 5.5 km/h 80 % 0.0 mm
23:03 17.1 °C 14.0 °C 1016.8 hPa Calm   5.5 km/h 81 % 0.0 mm
23:08 17.0 °C 14.0 °C 1016.8 hPa NE 5.0 km/h 5.5 km/h 82 % 0.0 mm
23:13 16.9 °C 14.0 °C 1016.8 hPa Calm   5.8 km/h 82 % 0.0 mm
23:18 16.7 °C 14.0 °C 1016.8 hPa Calm   5.8 km/h 82 % 0.0 mm
23:23 16.7 °C 14.0 °C 1016.8 hPa Calm     82 % 0.0 mm
23:29 16.4 °C 13.0 °C 1016.8 hPa Calm     82 % 0.0 mm
23:34 16.0 °C 13.0 °C 1016.8 hPa Calm     82 % 0.0 mm
23:39 15.9 °C 13.0 °C 1016.8 hPa Calm     83 % 0.0 mm
23:44 15.9 °C 13.0 °C 1016.8 hPa Calm     83 % 0.0 mm
23:49 15.9 °C 13.0 °C 1016.8 hPa Calm     83 % 0.0 mm
23:54 15.9 °C 14.0 °C 1016.8 hPa Calm   2.1 km/h 86 % 0.0 mm
23:59 15.9 °C 14.0 °C 1016.8 hPa Calm   4.0 km/h 86 % 0.0 mm
Le Gheer Warneton
Courtoisie de Weather Underground - 2.25 mb

Mise a jour : 18/12/2017 17:45:12
Généré par Cumulus 1.9.4 (1099)